Hourly Data Report for October 04, 2017

All times are specified in Local Standard Time (LST). Add 1 hour to adjust for Daylight Saving Time where and when it is observed.

ISLAND LAKE A
MANITOBA

53°51'26.000" N
94°39'13.000" W
235.30 m
5061375
71145
YIV

Download Data

Hourly Data (October 2017)
Hourly Data Report for October 4, 2017
Temp Definition
°C
Dew Point Temp Definition
°C
Rel Hum Definition
%
Wind Dir Definition
10's deg

Wind Spd Definition
km/h
Visibility Definition
km
Stn Press Definition
kPa
Hmdx Definition


Wind Chill Definition


Weather Definition


TIME
00:00 Legend Double Dagger 5.3 3.5 88 17 14 24.1 98.94     Mostly Cloudy
01:00 Legend Double Dagger 5.2 3.8 91 19 12 24.1 98.86     LegendNANA
02:00 Legend Double Dagger 5.5 4.2 91 21 9 24.1 98.77     LegendNANA
03:00 Legend Double Dagger 5.6 4.8 94 25 8 9.7 98.73     Fog
04:00 Legend Double Dagger 5.7 5.0 95 26 18 16.1 98.66     LegendNANA
05:00 Legend Double Dagger 5.7 4.6 92 26 22 19.3 98.58     LegendNANA
06:00 Legend Double Dagger 6.0 4.6 90 23 15 19.3 98.42     Cloudy
07:00 Legend Double Dagger 6.3 5.1 92 25 17 19.3 98.38     LegendNANA
08:00 Legend Double Dagger 6.8 4.9 88 23 22 24.1 98.29     LegendNANA
09:00 Legend Double Dagger 7.6 4.9 83 26 25 24.1 98.24     Cloudy
10:00 Legend Double Dagger 8.5 4.3 75 27 32 24.1 98.21     LegendNANA
11:00 Legend Double Dagger 8.6 3.4 69 26 32 24.1 98.19     LegendNANA
12:00 Legend Double Dagger 9.5 3.8 67 28 28 24.1 98.20     Mostly Cloudy
13:00 Legend Double Dagger 9.6 3.5 65 28 26 24.1 98.25     LegendNANA
14:00 Legend Double Dagger 9.7 3.2 64 28 33 24.1 98.29     LegendNANA
15:00
16:00 Legend Double Dagger 9.4 4.4 71 28 27 19.3 98.41     Rain
17:00 Legend Double Dagger 6.8 4.1 83 31 20 24.1 98.49     Rain
18:00 Legend Double Dagger 7.0 4.4 84 31 19 16.1 98.56     Rain
19:00 Legend Double Dagger 6.1 4.8 91 34 23 24.1 98.67     LegendNANA
20:00 Legend Double Dagger 5.2 3.5 88 35 23 19.3 98.72     Rain
21:00 Legend Double Dagger 4.5 2.1 84 35 19 24.1 98.75     Mostly Cloudy
22:00 Legend Double Dagger 4.2 1.7 84 36 19 24.1 98.78     LegendNANA
23:00 Legend Double Dagger 3.6 1.4 86 36 10 24.1 98.79     LegendNANA

Notes on Data Quality.

Legend

  • E = Estimated
  • M = Missing
  • NA = Not Available
  • ‡ = Partner data that is not subject to review by the National Climate Archives
Date modified: